Lawrenceville, IL

11:46 AM CST on December 14, 2017 (GMT -0600)
Lawrenceville-Vincennes International

Weather History for KLWV - December, 2011

Change the Weather History Date:

Friday, December 30, 2011

  Actual Average Record
Temperature  
Mean Temperature 49 °F 32 °F  
Max Temperature 53 °F 39 °F 60 °F (1990)
Min Temperature 44 °F 24 °F -1 °F (2012)
Degree Days  
Heating Degree Days 16 34  
Month to date heating degree days 709 907  
Since 1 July heating degree days 1450 1765  
Cooling Degree Days 0 0  
Month to date cooling degree days 0 0  
Year to date cooling degree days 1651 1387  
Moisture  
Dew Point 40 °F    
Average Humidity 70    
Maximum Humidity 89    
Minimum Humidity 50    
Precipitation  
Precipitation 0.07 in 0.11 in 1.99 in (1990)
Month to date precipitation 4.04 3.29  
Year to date precipitation 51.82 43.78  
Sea Level Pressure  
Sea Level Pressure 29.72 in    
Wind  
Wind Speed 17 mph (SW)    
Max Wind Speed 28 mph    
Max Gust Speed 35 mph    
Visibility 9 miles    
Events Rain    
T = Trace of Precipitation, MM = Missing Value Source: NWS Daily Summary

Daily Weather History Graph

Daily Weather History Graph

Search for Another Location

Airport or City:

Trip Planner

Search our weather history database for the weather conditions in past years. The results will help you decide how hot, cold, wet, or windy it might be!

Date:

Astronomy

Dec. 30, 2011 Rise Set
Actual Time 7:08 AM CST 4:37 PM CST
Civil Twilight 6:38 AM CST 5:07 PM CST
Nautical Twilight 6:05 AM CST 5:40 PM CST
Astronomical Twilight 5:32 AM CST 6:13 PM CST
Moon 10:31 AM CST (12/30) 11:08 PM CST (12/30)
Length of Visible Light 10h 29m
Length of Day
9h 29m
Waxing Crescent, 36% of the Moon is Illuminated
Dec 30
Waxing Crescent
Jan 1
First Quarter
Jan 9
Full
Jan 16
Last Quarter
Jan 23
New

Hourly Weather History & Observations

Time (CST) Temp. Windchill Dew Point Humidity Pressure Visibility Wind Dir Wind Speed Gust Speed Precip Events Conditions
12:53 AM 46.9 °F - 39.0 °F 74% 29.79 in 10.0 mi South 8.1 mph - N/A   Overcast
1:53 AM 48.0 °F - 41.0 °F 77% 29.80 in 10.0 mi SSW 11.5 mph - 0.00 in Rain Light Rain
2:53 AM 45.0 °F 38.2 °F 41.0 °F 86% 29.76 in 5.0 mi SSE 15.0 mph - 0.05 in Rain Rain
3:53 AM 46.0 °F 40.2 °F 41.0 °F 83% 29.75 in 8.0 mi South 12.7 mph - 0.00 in   Overcast
4:53 AM 46.0 °F 39.6 °F 41.0 °F 83% 29.72 in 7.0 mi South 15.0 mph - N/A   Mostly Cloudy
5:01 AM 46.4 °F 39.5 °F 42.8 °F 87% 29.71 in 7.0 mi South 17.3 mph - N/A   Mostly Cloudy
5:53 AM 48.9 °F - 44.1 °F 83% 29.69 in 8.0 mi South 16.1 mph - N/A   Overcast
6:53 AM 48.9 °F - 45.0 °F 86% 29.67 in 8.0 mi South 17.3 mph - N/A   Overcast
7:06 AM 50.0 °F - 44.6 °F 82% 29.66 in 8.0 mi South 17.3 mph 24.2 mph N/A   Overcast
7:53 AM 48.9 °F - 44.1 °F 83% 29.65 in 8.0 mi South 17.3 mph - N/A   Overcast
8:53 AM 50.0 °F - 45.0 °F 83% 29.63 in 9.0 mi South 17.3 mph - N/A   Overcast
9:53 AM 50.0 °F - 45.0 °F 83% 29.61 in 8.0 mi South 17.3 mph - 0.01 in Rain Light Rain
10:23 AM 51.8 °F - 44.6 °F 76% 29.61 in 8.0 mi SW 24.2 mph 29.9 mph N/A   Overcast
10:53 AM 52.0 °F - 43.0 °F 71% 29.60 in 10.0 mi SW 24.2 mph 31.1 mph N/A   Overcast
11:53 AM 52.0 °F - 39.9 °F 63% 29.59 in 10.0 mi WSW 21.9 mph 28.8 mph N/A   Overcast
12:53 PM 52.0 °F - 37.9 °F 59% 29.60 in 10.0 mi WSW 23.0 mph 32.2 mph N/A   Overcast
1:53 PM 52.0 °F - 37.9 °F 59% 29.61 in 10.0 mi WSW 15.0 mph - N/A   Overcast
2:53 PM 53.1 °F - 37.0 °F 55% 29.64 in 10.0 mi SW 16.1 mph - N/A   Overcast
3:53 PM 53.1 °F - 37.0 °F 55% 29.66 in 10.0 mi WSW 16.1 mph - N/A   Overcast
4:53 PM 53.1 °F - 36.0 °F 52% 29.69 in 10.0 mi WSW 15.0 mph 23.0 mph N/A   Overcast
5:53 PM 52.0 °F - 36.0 °F 54% 29.72 in 10.0 mi West 20.7 mph 28.8 mph 0.00 in Rain Light Rain
6:53 PM 52.0 °F - 34.0 °F 50% 29.75 in 10.0 mi West 16.1 mph 23.0 mph 0.00 in   Overcast
7:53 PM 46.0 °F 40.2 °F 39.0 °F 76% 29.80 in 10.0 mi West 12.7 mph - 0.01 in   Overcast
8:53 PM 45.0 °F 38.2 °F 39.9 °F 82% 29.82 in 10.0 mi WNW 15.0 mph - 0.00 in Rain Light Rain
9:04 PM 44.6 °F 38.1 °F 39.2 °F 81% 29.82 in 10.0 mi WNW 13.8 mph - 0.00 in Rain Light Rain
9:32 PM 44.6 °F 37.2 °F 39.2 °F 81% 29.83 in 10.0 mi West 17.3 mph 21.9 mph 0.00 in   Overcast
9:53 PM 45.0 °F 38.2 °F 37.9 °F 76% 29.83 in 10.0 mi West 15.0 mph 27.6 mph 0.00 in   Overcast
10:09 PM 44.6 °F 36.6 °F 37.4 °F 76% 29.84 in 10.0 mi West 19.6 mph 26.5 mph N/A   Overcast
10:53 PM 45.0 °F 36.6 °F 37.0 °F 74% 29.85 in 10.0 mi WNW 21.9 mph 27.6 mph N/A   Overcast
11:53 PM 44.1 °F 35.9 °F 36.0 °F 73% 29.87 in 10.0 mi WNW 19.6 mph - N/A   Overcast